Total_Precipitation_Accumulation
0.59 0.52 0.48 0.55 0.57 0.53 0.51 0.59 0.68 0.76 0.76 0.88 1.00 1.10 1.20 1.35 1.56 1.63 1.69 1.81 1.87 1.88 1.97 2.05 2.12 2.07 2.01 2.10 2.31 2.73 2.69 2.35 2.10 2.08 1.97 1.82 1.76 1.78 1.72 1.83 1.90 1.80 1.75
0.49 0.44 0.42 0.44 0.46 0.48 0.49 0.55 0.66 0.78 0.84 0.91 1.04 1.21 1.46 1.51 1.66 1.87 1.86 1.85 1.90 1.95 2.01 2.21 2.34 2.30 2.30 2.38 2.44 2.73 2.95 2.71 2.49 2.50 2.70 2.48 2.26 1.88 1.57 1.60 1.67 1.72 1.76
0.42 0.35 0.36 0.40 0.42 0.45 0.55 0.63 0.75 0.94 1.13 1.24 1.47 1.80 2.05 2.08 2.00 2.03 2.10 2.09 2.09 2.14 2.09 2.17 2.36 2.38 2.39 2.47 2.65 2.94 3.31 3.34 3.01 2.74 2.97 2.76 2.47 2.35 1.82 1.49 1.50 1.62 1.74
0.51 0.41 0.38 0.40 0.40 0.46 0.62 0.84 1.08 1.39 1.60 1.73 1.91 2.17 2.30 2.34 2.22 2.19 2.22 2.26 2.17 2.10 2.11 2.16 2.30 2.47 2.63 2.78 2.80 2.75 3.22 3.61 3.43 3.16 2.75 2.46 2.33 2.47 2.34 1.86 1.52 1.54 1.58
0.54 0.54 0.52 0.57 0.59 0.70 0.94 1.31 1.61 1.86 2.00 2.03 2.09 2.34 2.47 2.61 2.61 2.46 2.32 2.28 2.27 2.23 2.15 2.13 2.14 2.16 2.29 2.46 2.60 2.65 2.92 3.21 3.44 3.40 3.15 2.83 2.63 2.16 2.16 2.24 1.99 1.70 1.45
0.61 0.71 0.84 0.97 1.04 1.14 1.38 1.63 1.79 1.97 2.01 1.99 2.00 2.12 2.32 2.48 2.47 2.46 2.42 2.35 2.28 2.20 2.08 2.00 2.05 2.04 2.03 2.17 2.31 2.45 2.74 2.94 3.11 3.20 3.11 3.02 2.94 2.61 2.31 2.11 2.06 1.92 1.66
0.68 0.92 1.10 1.25 1.34 1.45 1.57 1.64 1.64 1.73 1.79 1.81 1.83 1.85 1.92 1.97 2.00 2.09 2.04 1.94 1.83 1.78 1.75 1.67 1.68 1.78 1.84 1.99 2.08 2.05 2.14 2.37 2.59 2.78 2.85 2.89 2.79 2.71 2.63 2.46 2.19 1.92 1.59
0.95 1.08 1.21 1.34 1.39 1.53 1.61 1.57 1.52 1.51 1.47 1.45 1.53 1.56 1.58 1.66 1.65 1.60 1.56 1.49 1.43 1.43 1.40 1.39 1.39 1.44 1.49 1.67 1.89 1.92 1.94 2.04 2.16 2.22 2.52 2.72 2.68 2.71 2.51 2.39 2.40 2.12 1.77
1.21 1.39 1.40 1.32 1.28 1.36 1.45 1.46 1.40 1.32 1.23 1.18 1.25 1.33 1.44 1.45 1.38 1.30 1.23 1.23 1.15 1.18 1.18 1.21 1.29 1.35 1.32 1.40 1.52 1.72 1.79 1.87 1.96 1.97 2.16 2.36 2.44 2.45 2.29 2.31 2.40 2.31 1.99
1.32 1.58 1.70 1.60 1.36 1.20 1.23 1.21 1.24 1.30 1.27 1.23 1.23 1.22 1.19 1.13 1.09 1.09 0.98 0.97 1.04 1.07 1.08 1.07 1.13 1.20 1.22 1.30 1.41 1.43 1.54 1.63 1.81 1.99 2.11 2.16 2.20 2.27 2.20 2.19 2.30 2.30 2.13
1.54 1.67 1.71 1.59 1.44 1.16 1.09 1.09 1.12 1.21 1.27 1.21 1.24 1.20 1.09 0.99 0.94 0.87 0.79 0.80 0.86 0.91 0.92 0.95 1.05 1.08 1.11 1.15 1.16 1.17 1.24 1.31 1.44 1.51 1.66 1.89 2.07 2.16 2.17 2.23 2.30 2.32 2.18
1.23 1.25 1.35 1.37 1.29 1.16 1.10 1.18 1.23 1.26 1.24 1.19 1.19 1.14 1.06 0.98 0.98 0.87 0.75 0.80 0.85 0.86 0.89 0.97 1.00 1.01 1.07 1.10 1.07 1.09 1.15 1.26 1.34 1.37 1.40 1.50 1.77 1.94 2.07 2.18 2.22 2.26 2.21
0.97 0.92 1.03 1.18 1.13 1.07 1.10 1.22 1.37 1.40 1.34 1.23 1.16 1.15 1.10 1.07 1.11 0.97 0.85 0.84 0.92 1.02 1.05 1.06 1.09 1.03 1.05 1.07 1.06 1.10 1.17 1.18 1.22 1.25 1.27 1.37 1.48 1.64 1.76 1.91 2.04 2.09 2.20
0.82 0.79 0.75 0.80 0.83 0.87 0.89 1.00 1.28 1.53 1.52 1.39 1.26 1.21 1.22 1.26 1.24 1.09 1.00 0.90 0.89 0.93 0.95 1.00 1.08 1.16 1.20 1.17 1.13 1.18 1.21 1.16 1.15 1.18 1.25 1.30 1.32 1.51 1.75 1.86 1.97 2.03 2.15
0.65 0.61 0.56 0.56 0.57 0.62 0.70 0.84 1.16 1.42 1.43 1.40 1.24 1.14 1.13 1.13 1.10 1.11 1.14 1.04 0.91 0.84 0.83 0.90 0.96 1.08 1.17 1.21 1.22 1.11 1.05 1.08 1.13 1.10 1.08 1.16 1.29 1.42 1.63 1.73 1.97 2.01 2.17
0.59 0.58 0.53 0.48 0.46 0.47 0.53 0.65 0.84 1.06 1.17 1.19 1.13 1.02 1.03 1.01 0.93 0.97 1.08 1.12 0.98 0.90 0.84 0.83 0.80 0.82 0.87 1.09 1.11 0.99 0.88 0.95 1.09 1.14 1.10 1.09 1.17 1.26 1.36 1.40 1.65 1.85 2.00
0.59 0.60 0.58 0.53 0.52 0.51 0.51 0.53 0.62 0.77 0.89 0.94 0.90 0.81 0.84 0.98 1.01 1.05 1.05 0.95 0.88 0.89 0.88 0.79 0.71 0.70 0.77 0.87 0.86 0.92 0.88 0.91 0.99 1.07 1.12 1.16 1.13 1.23 1.29 1.32 1.44 1.55 1.62
0.58 0.58 0.55 0.49 0.49 0.51 0.52 0.55 0.56 0.61 0.66 0.68 0.68 0.65 0.71 0.88 0.94 0.90 0.86 0.79 0.77 0.81 0.87 0.79 0.74 0.77 0.78 0.82 0.85 0.90 0.87 0.97 1.06 1.06 1.05 1.18 1.23 1.28 1.43 1.40 1.49 1.43 1.38
0.35 0.38 0.41 0.38 0.36 0.37 0.42 0.43 0.41 0.45 0.47 0.48 0.53 0.64 0.66 0.67 0.70 0.69 0.68 0.70 0.75 0.76 0.71 0.74 0.88 0.87 0.90 1.00 0.92 0.84 0.86 0.98 1.04 1.01 1.04 1.16 1.24 1.45 1.58 1.56 1.53 1.43 1.37
0.19 0.27 0.37 0.39 0.34 0.34 0.40 0.40 0.40 0.42 0.42 0.45 0.51 0.59 0.65 0.66 0.67 0.70 0.71 0.73 0.74 0.77 0.77 0.79 0.91 0.95 0.98 1.04 0.92 0.89 0.93 1.03 1.11 1.08 1.07 1.29 1.27 1.41 1.49 1.50 1.59 1.57 1.44
0.19 0.24 0.30 0.37 0.37 0.37 0.38 0.39 0.41 0.44 0.51 0.53 0.51 0.54 0.62 0.67 0.70 0.76 0.77 0.78 0.79 0.81 0.85 0.84 0.86 0.83 0.79 0.82 0.86 0.91 0.91 0.97 1.06 1.04 1.02 0.98 1.15 1.21 1.33 1.43 1.47 1.73 1.65
0.17 0.21 0.25 0.36 0.39 0.42 0.42 0.45 0.45 0.46 0.52 0.56 0.54 0.54 0.61 0.65 0.69 0.78 0.82 0.83 0.86 0.86 0.87 0.90 0.92 0.89 0.82 0.77 0.78 0.86 0.93 1.03 0.98 0.91 0.94 0.94 1.10 1.12 1.19 1.21 1.40 1.65 1.66
0.17 0.21 0.24 0.32 0.38 0.42 0.47 0.51 0.50 0.49 0.51 0.53 0.58 0.60 0.63 0.64 0.65 0.70 0.75 0.79 0.85 0.88 0.89 0.92 0.95 0.90 0.85 0.86 0.89 0.89 0.94 0.96 0.88 0.80 0.97 1.05 1.13 1.09 1.03 1.19 1.44 1.47 1.48
0.13 0.17 0.21 0.27 0.35 0.40 0.44 0.51 0.53 0.53 0.56 0.58 0.65 0.69 0.71 0.71 0.69 0.71 0.74 0.77 0.80 0.83 0.82 0.84 0.92 0.94 0.91 0.86 0.82 0.82 0.84 0.83 0.81 0.85 1.05 1.21 1.25 1.20 1.13 1.21 1.33 1.33 1.43
0.16 0.16 0.18 0.23 0.29 0.35 0.40 0.47 0.53 0.59 0.61 0.62 0.69 0.77 0.78 0.77 0.77 0.76 0.76 0.74 0.73 0.80 0.80 0.79 0.85 0.87 0.85 0.87 0.92 0.88 0.85 0.83 0.86 0.98 1.16 1.33 1.37 1.42 1.37 1.33 1.38 1.33 1.28
0.20 0.20 0.19 0.20 0.23 0.29 0.33 0.39 0.43 0.53 0.61 0.67 0.70 0.73 0.80 0.81 0.78 0.75 0.74 0.77 0.78 0.83 0.80 0.77 0.80 0.81 0.83 0.89 0.91 0.93 0.96 0.94 1.05 1.20 1.31 1.44 1.54 1.56 1.55 1.54 1.49 1.37 1.29